Preview of NWS' New Version of Forecast
This preview is not operational and should not be used for support decisions.
Latest weather observations around

Buffalo, Greater Buffalo International Airport (KBUF)

Using International System of Units (Switch to English Units)
Date/ Time (EDT) Wind (kph) Vis. (km) Weather Sky Cond. Temp (°C) Rel. Humidity Wind Chill (°C) Heat Index (°C) Pressure Precip. (cm)
Air Dwpt 6 hour Altimeter (hPa) Sea level (hPa) 1 hr 3 hr 6 hr
Max Min
Sep 19 18:54 E 5 16.09 Mostly Cloudy FEW150 BKN200 BKN250 22 11     48%   22 1022.7 1022.6      
Sep 19 17:54 ESE 8 16.09 Mostly Cloudy FEW150 BKN200 BKN250 23 9     41%   23 1022.7 1022.6      
Sep 19 16:54 S 8 16.09 Mostly Cloudy FEW160 BKN200 BKN250 24 9     38%   23 1023 1022.7      
Sep 19 15:54 SSW 11 16.09 Mostly Cloudy FEW200 SCT240 BKN300 24 9     38%   23 1023.4 1023.3      
Sep 19 14:54 WSW 9 16.09 Partly Cloudy FEW200 SCT300 24 7     34%   23 1024.1 1023.8      
Sep 19 13:54 S 11 16.09 Partly Cloudy FEW200 SCT300 23 8     37%   23 1024.4 1024.1      
Sep 19 12:54 SSW 8 16.09 Mostly Clear FEW200 FEW300 22 8     41%   21 1024.7 1024.5      
Sep 19 11:54 S 15 16.09 Partly Cloudy FEW150 SCT300 21 9     47%     1025.1 1024.9      
Sep 19 10:54 S 13 16.09 Partly Cloudy FEW150 SCT270 19 10     56%     1025.4 1025.4      
Sep 19 09:54 S 5 16.09 Mostly Clear FEW150 FEW270 16 8     60%     1026.1 1026.2      
Sep 19 08:54 S 8 16.09 Mostly Cloudy FEW140 SCT230 BKN270 14 8     69%     1025.7 1025.8      
Sep 19 07:54 SSE 9 16.09 Partly Cloudy FEW150 SCT250 13 8     72%     1025.4 1025.4      
Sep 19 06:54 SE 9 16.09 Partly Cloudy SCT250 12 8     74%     1024.7 1024.6      
Sep 19 05:54 SSE 13 16.09 Mostly Cloudy BKN250 12 8     77%     1024.4 1024.3      
Sep 19 04:54 SE 11 16.09 Mostly Cloudy BKN250 12 8     77%     1024.7 1024.6      
Sep 19 03:54 SE 9 16.09 Mostly Cloudy BKN250 13 9     75%     1024.7 1024.7      
Sep 19 02:54 SE 9 16.09 Mostly Cloudy BKN250 14 9     74%     1025.1 1024.8      
Sep 19 01:54 SE 9 16.09 Mostly Cloudy BKN250 14 10     75%     1025.1 1024.7      
Sep 19 00:54 SE 9 16.09 Mostly Cloudy BKN250 14 11     78%     1024.7 1024.4      
Sep 18 23:54 SE 9 16.09 Partly Cloudy SCT250 15 11     78%     1024.7 1024.8      
Sep 18 22:54 Calm 16.09 Partly Cloudy SCT250 16 11     75%     1025.1 1025.1      
Sep 18 21:54 E 13 16.09 Mostly Clear FEW250 17 12     70%     1025.1 1024.9      
Sep 18 20:54 E 11 16.09 Mostly Clear FEW150 FEW250 18 12     68%     1025.1 1024.9      
Sep 18 19:54 ENE 11 16.09 Mostly Clear FEW200 FEW270 FEW300 19 13     68%     1024.7 1024.6      
Sep 18 18:54 E 9 16.09 Mostly Clear FEW200 FEW270 FEW300 21 11     53%     1024.7 1024.8      
Sep 18 17:54 ENE 15 16.09 Partly Cloudy FEW200 FEW260 SCT300 23 12     51%   22 1024.7 1024.5      
Sep 18 16:54 E 9 16.09 Partly Cloudy FEW050 SCT200 SCT250 23 12     48%   23 1024.7 1024.5      
Sep 18 15:54 E 13 16.09 Partly Cloudy FEW050 FEW200 SCT250 24 11     43%   23 1024.7 1024.7      
Sep 18 14:54 ENE 13 16.09 Partly Cloudy FEW050 FEW200 SCT250 23 11     46%   23 1025.1 1024.8      
Sep 18 13:54 NE 17 16.09 Partly Cloudy FEW050 FEW200 SCT250 23 11     45%   23 1025.1 1025      
Sep 18 12:54 ESE 18 16.09 Partly Cloudy SCT250 23 11     46%   22 1025.1 1025      
Notice The following observation data may not be complete
Sep 18 11:54   16.09 Mostly Clear FEW260          %              
Sep 18 09:54 ESE 9 16.09 Mostly Clear FEW280 18 9     54%     1025.1 1025      
Sep 18 08:54 SE 5 16.09 Mostly Clear FEW280 15 8     64%     1025.4 1025.2      
Sep 18 07:54 SE 8 16.09 Mostly Clear FEW150 FEW200 13 8     72%     1025.1 1025      
Sep 18 06:54 ESE 9 16.09 Clear CLR 11 8     80%     1024.4 1024.5      
Sep 18 05:54 ESE 5 16.09 Mostly Clear FEW250 12 8     77%     1024.1 1024.1      
Sep 18 04:54 ESE 9 16.09 Mostly Clear FEW250 12 8     80%     1023.7 1023.5      
Sep 18 03:54 E 5 16.09 Mostly Clear FEW250 12 8     77%     1023.7 1023.6      
Sep 18 02:54 SE 5 16.09 Mostly Clear FEW250 13 9     77%     1023.7 1023.6      
Sep 18 01:54 SE 8 16.09 Clear CLR 13 9     75%     1023.7 1023.7      
Sep 18 00:54 SE 9 16.09 Clear CLR 14 9     74%     1023.4 1023.4      
Sep 17 23:54 SE 9 16.09 Clear CLR 15 9     69%     1023.4 1023.3      
Sep 17 22:54 SE 9 16.09 Clear   16 10     69%     1023 1023.1      
Sep 17 21:54 ESE 13 16.09 Clear CLR 17 10     65%     1023 1023      
Sep 17 20:54 ENE 9 16.09 Mostly Clear FEW280 17 11     67%     1023 1022.9      
Sep 17 19:54 NE 11 16.09 Mostly Clear FEW280 18 11     61%     1022.4 1022.4      
Sep 17 18:54 NE 15 16.09 Mostly Clear FEW280 21 12     57%     1022.4 1022.5      
Sep 17 17:54 NE 13 16.09 Mostly Clear FEW050 FEW280 22 12     51%   22 1022.4 1022.3      
Sep 17 16:54 NNE 15 16.09 Mostly Clear FEW050 FEW280 23 11     48%   22 1022.4 1022.1      
Sep 17 15:54 E 13 16.09 Mostly Clear FEW055 FEW260 23 11     45%   23 1022.4 1022.3      
Sep 17 14:54 ENE 15 16.09 Mostly Clear FEW055 FEW260 23 9     43%   22 1022.7 1022.6      
Sep 17 13:54 NE 5 16.09 Mostly Clear FEW050 FEW250 23 9     43%   22 1023 1022.8      
Sep 17 12:54 ENE 9 16.09 Mostly Clear FEW050 FEW250 22 9     44%   21 1023.4 1023.2      
Sep 17 11:54 ENE 11 16.09 Mostly Clear FEW250 21 8     44%     1024.1 1023.7      
Sep 17 10:54 5 16.09 Mostly Clear FEW250 20 10     53%     1024.1 1023.8      
Sep 17 09:54 Calm 16.09 Mostly Clear FEW260 FEW350 18 9     56%     1024.1 1023.9      
Sep 17 08:54 Calm 16.09 Mostly Clear FEW260 FEW350 15 9     67%     1023.7 1023.8      
Sep 17 07:54 ESE 8 16.09 Partly Cloudy SCT250 13 8     74%     1023 1023      
Sep 17 06:54 NE 5 16.09 Mostly Clear FEW065 FEW250 11 8     83%     1022.4 1022.5      
Sep 17 05:54 NNE 5 16.09 Mostly Clear FEW065 12 8     80%     1021.7 1021.7      
Sep 17 04:54 N 8 16.09 Clear CLR 11 8     83%     1021.3 1021.4      
Sep 17 03:54 ENE 8 16.09 Clear CLR 13 8     72%     1021.3 1021.1      
Sep 17 02:54 E 5 16.09 Mostly Cloudy FEW049 BKN065 14 8     69%     1021.3 1021.2      
Sep 17 01:54 E 9 16.09 Partly Cloudy FEW048 SCT065 16 8     62%     1021.3 1021     0
Sep 17 00:54 E 9 16.09 Mostly Cloudy FEW048 BKN080 16 9     64%     1020.7 1020.5      
Sep 16 23:54 E 11 16.09 Mostly Cloudy FEW040 SCT060 BKN080 16 8     60%     1020.3 1020.2      
Sep 16 22:54 ENE 15 16.09 Mostly Cloudy BKN041 BKN060 17 9     62%     1020.3 1020.3   0  
Sep 16 21:54 NE 11 16.09 Cloudy BKN043 OVC065 17 12     75%     1020.3 1020.1 0    
Sep 16 19:54 NE 15 16.09 Cloudy OVC060 18 13     70%     1019.3 1019.3      
Notice The following observation data may not be complete
May 15 10:12 W 17 16.09 Light Rain FEW008 BKN023 OVC070   17      %     1010.2   0    
May 14 09:35 SSW 18 16.09 Cloudy OVC005 15 12     83%     1015.6        
Notice The following observation data may not be complete
May 14 07:54   0.4 Fog VV002          %              
May 14 04:20 SW 15 1.21 Fog/Mist VV002 13 11     87%     1014.6        
May 13 23:54 SW 17 16.09 Mostly Cloudy BKN007 15 11     78%     1014.9 1014.8      
May 13 23:24 SW 15 16.09 Partly Cloudy FEW010 SCT025 15 11     75%     1014.9        
May 13 23:09 SW 13 16.09 Mostly Cloudy FEW013 BKN028 15 11     75%     1014.9        
May 12 14:54 NNE 13 16.09 Mostly Cloudy BKN070 14 5     53%     1018.6 1018.9      
Jun 11 23:54 S 13 16.09 Clear CLR 22 14     61%   22 1015.2 1014.7      
Jun 11 18:54 WSW 26 16.09 Mostly Clear FEW250 25 14     52%   25 1015.9 1015.5      
Jun 11 17:54   16.09 Mostly Clear FEW250 27 14     44%   27 1015.9 1015.5      
Jun 11 16:54   16.09 Mostly Clear FEW250 26 14     49%   26 1016.3 1015.7      
Jun 10 01:54 SSW 5 16.09 Mostly Cloudy SCT050 BKN080 BKN200 18 11     63%     1011.2 1010.9      
Jun 09 23:54 SW 9 16.09 Mostly Cloudy BKN090 BKN140 BKN300 18 11     65%     1011.2 1011      
Jun 09 11:54   16.09 Mostly Cloudy FEW039 FEW120 FEW180 FEW220 BKN270 20 10     53%     1009.8 1009.7      
Jun 09 01:54 S 11 16.09 Mostly Clear FEW250 13 10     80%     1009.5 1009.3      
Jun 08 02:54 SSE 8 16.09 Clear CLR 11 7     74%     1017.6 1017.6      
Jun 06 11:54 NNW 21 16.09 Mostly Cloudy SCT008 SCT016 BKN035 16 13     81%     1008.5 1008.2 0    
Jun 06 04:54 WNW 11 14.48 Light Rain OVC010 13 12     90%     1006.8 1006.8 0 0